SCP
1 1 1 1 1 1 1 1 1 1 1 1 1 1 1 1 1 1 1 1 1 1 1 1 1 1 1 1 2 2 2 2 2 1 1 1 1 1 1 1 0 0 0
1 1 1 1 1 1 1 2 2 2 2 2 1 1 1 1 1 1 1 1 1 1 1 1 1 1 1 2 2 2 2 2 2 2 2 1 1 1 1 1 1 1 1
2 2 1 1 1 1 1 2 2 2 2 2 2 1 1 1 1 1 1 1 1 1 1 1 1 2 2 2 2 3 3 3 2 2 2 2 2 1 1 1 1 1 1
2 2 2 2 2 1 1 2 3 4 4 3 2 2 2 2 2 2 2 2 2 1 1 2 2 2 2 2 3 3 3 4 3 3 3 3 2 2 2 1 1 1 1
2 3 3 3 2 1 1 2 3 4 5 4 3 3 2 2 2 2 2 2 2 2 2 2 2 3 2 2 3 3 4 4 4 4 4 4 3 2 2 1 2 2 2
2 3 3 3 2 2 1 2 3 4 5 5 5 5 4 3 3 3 3 3 3 2 2 2 3 3 2 2 3 4 4 5 5 5 4 4 3 2 1 1 1 2 2
2 2 3 3 2 2 2 2 4 4 4 6 7 8 7 5 4 3 3 4 4 3 2 2 2 2 2 2 2 3 4 5 5 4 4 3 2 1 1 1 1 1 2
2 2 2 2 2 1 2 3 5 5 4 5 8 10 9 6 4 4 4 6 7 4 2 2 2 2 2 2 2 3 4 5 4 3 3 2 1 1 1 1 1 1 1
2 2 3 2 2 1 2 3 5 6 5 5 6 8 8 6 4 4 4 6 7 5 2 2 1 2 2 2 2 3 4 4 3 3 2 2 1 1 1 1 1 1 1
2 3 3 3 3 2 2 3 5 6 5 4 4 5 5 4 3 3 4 5 5 3 2 1 2 2 3 3 3 3 4 4 4 3 2 2 2 1 1 1 1 1 1
3 3 4 4 4 3 2 3 4 4 5 4 3 3 3 2 2 3 4 4 3 2 2 2 2 3 3 4 4 4 4 5 5 4 3 3 2 1 1 1 1 1 1
5 4 4 5 5 4 3 3 4 4 4 4 3 3 2 2 2 3 3 3 2 2 2 2 3 3 4 5 5 5 5 6 7 6 5 3 2 2 1 1 1 2 2
5 5 5 6 6 6 5 5 5 4 4 4 4 4 4 3 3 3 3 2 2 2 2 2 3 3 5 6 6 5 4 5 6 7 6 4 3 3 3 3 3 3 3
4 5 5 5 5 7 7 6 6 6 5 6 7 7 6 4 3 2 2 2 2 2 2 2 3 4 5 5 5 4 4 4 5 6 5 4 3 4 4 4 4 4 4
3 3 4 4 4 5 6 6 6 7 7 7 8 8 6 4 3 2 2 2 2 2 3 3 4 4 4 4 4 4 4 4 4 4 4 4 4 4 4 4 4 4 4
3 3 3 3 3 4 5 7 7 6 6 6 7 7 5 4 4 3 3 3 3 3 3 4 4 4 4 3 3 4 4 4 5 5 5 5 5 5 4 3 3 3 4
4 4 3 3 4 5 6 7 7 6 4 4 5 5 5 5 5 5 4 5 5 5 5 5 5 5 5 3 3 3 3 4 5 6 6 6 6 7 6 5 4 4 4
4 4 4 4 5 6 7 7 6 5 5 5 5 5 4 5 5 5 5 6 6 6 6 6 6 6 5 3 1 1 2 3 4 5 6 6 7 7 7 7 7 7 7
4 4 4 4 5 6 6 7 7 6 6 6 6 6 7 7 7 6 6 6 7 8 8 7 8 7 5 3 1 0 2 3 4 4 4 5 5 4 4 4 6 6 7
4 5 5 5 5 5 6 7 8 8 8 7 8 10 12 12 11 10 9 8 8 8 8 8 8 7 5 2 1 1 2 3 4 4 4 3 3 2 2 2 3 4 4
4 5 5 4 4 5 6 7 8 8 8 7 9 12 15 14 14 12 11 10 9 8 8 8 8 7 5 3 1 1 2 4 5 5 5 4 2 2 1 2 2 3 3
5 5 5 4 5 5 6 7 7 7 6 6 8 11 13 13 13 12 11 10 9 8 8 8 8 8 6 3 2 1 2 4 6 6 5 3 2 1 1 1 2 2 2
5 5 5 5 5 5 5 6 5 5 5 6 7 9 10 11 11 11 10 8 7 6 6 6 7 7 6 5 4 2 2 4 6 5 3 2 1 0 0 0 1 1 2
5 5 5 5 5 4 4 4 4 4 4 5 6 8 9 10 10 10 9 7 6 5 4 4 5 5 6 6 6 4 3 4 4 3 2 2 1 1 0 0 1 1 1
6 6 6 5 4 4 4 4 4 4 4 4 5 6 8 10 11 11 8 6 5 4 3 3 3 4 4 5 5 4 4 3 3 2 3 3 2 2 1 1 1 1 1
6 6 6 5 4 3 4 5 5 4 4 4 5 6 8 11 12 10 8 5 4 3 3 3 3 3 3 3 3 3 3 3 2 2 3 3 3 3 2 1 1 1 1
Wind_Speed
10 9 9 8 8 8 8 7 6 6 5 4 3 3 3 2 2 2 2 1 1 2 1 1 2 1 1 1 2 2 3 3 2 2 3 3 3 4 2 2 2 3 3
10 10 10 9 9 9 9 8 8 7 7 4 3 2 2 1 2 1 2 1 1 1 2 1 1 1 2 2 2 2 2 2 3 2 2 3 3 3 3 2 2 2 2
12 12 11 11 10 10 10 8 8 8 7 6 4 3 3 3 3 3 2 1 1 1 0 1 0 0 1 2 2 3 3 2 2 1 2 1 2 3 2 3 2 2 2
12 12 12 12 11 11 10 9 9 8 8 7 5 5 3 2 2 1 2 2 1 1 1 1 0 1 1 1 3 2 2 3 2 2 1 2 1 1 3 3 3 3 2
12 12 12 12 11 10 10 10 10 9 8 7 6 5 4 2 2 2 3 1 1 1 0 1 0 1 1 0 1 1 3 2 2 1 1 1 1 2 1 2 2 2 2
12 12 12 11 11 10 10 10 10 9 9 8 7 6 4 3 3 3 3 2 2 1 1 1 0 1 1 0 1 2 2 2 2 2 1 2 1 1 1 2 3 2 2
12 12 12 13 12 12 11 11 11 10 9 9 8 7 6 5 5 4 3 2 2 2 1 0 0 0 0 0 1 1 1 2 2 2 1 1 1 1 1 1 2 2 2
11 12 13 13 12 12 12 11 11 10 10 9 8 6 6 5 4 4 3 2 1 1 2 1 1 0 0 1 0 1 1 1 2 2 1 2 1 1 1 2 2 3 3
11 12 12 12 13 12 12 12 11 10 10 9 8 7 6 4 3 4 4 2 2 2 3 2 1 1 0 1 1 1 1 1 1 2 2 2 1 1 1 2 2 2 2
10 11 11 12 12 11 11 11 11 10 10 10 8 7 7 6 5 4 3 2 2 1 2 2 2 1 1 1 1 1 0 1 0 0 0 2 1 1 2 2 2 3 2
10 10 10 10 11 11 11 11 11 10 9 9 8 7 6 6 6 5 4 4 2 2 2 2 1 1 0 0 1 1 0 1 1 1 1 1 1 1 2 2 2 2 2
8 9 10 10 10 10 10 11 11 10 10 9 8 8 7 6 6 6 5 4 3 3 3 2 2 2 1 1 1 1 1 1 1 1 1 2 2 2 2 1 2 1 1
7 8 8 9 9 10 10 10 10 10 10 10 9 8 7 7 6 5 5 5 4 4 3 3 2 2 2 1 1 1 1 2 2 2 2 2 2 2 1 2 2 2 2
7 7 8 8 8 8 8 9 9 9 9 9 9 8 8 7 7 6 6 5 5 5 5 4 3 3 2 2 2 2 2 2 2 2 2 2 1 1 2 2 2 2 3
7 7 7 7 7 8 8 8 8 9 9 9 9 9 8 7 7 7 6 6 5 5 5 5 4 4 3 2 2 2 2 2 2 2 2 2 3 4 2 1 1 3 3
6 7 7 7 7 8 8 8 8 8 9 9 9 8 8 8 8 7 7 6 6 5 5 5 4 4 2 4 2 1 2 2 2 2 2 3 4 4 3 3 3 1 2
5 6 6 5 6 7 7 8 8 9 9 9 8 8 8 8 7 7 7 7 7 6 6 5 5 4 3 4 3 1 1 2 2 2 2 1 3 3 3 4 3 2 1
4 5 5 5 5 6 7 7 8 9 9 9 9 8 8 8 7 7 7 7 6 6 5 5 5 4 4 5 4 3 4 2 2 2 2 1 2 2 1 3 3 3 3
2 3 4 4 4 5 7 8 8 8 8 8 9 9 9 8 8 7 7 6 6 6 6 5 5 5 4 5 5 4 4 3 3 3 2 2 2 3 1 3 3 3 3
2 3 4 4 4 5 6 8 8 8 7 7 7 7 8 8 8 7 6 6 5 5 5 5 5 5 4 6 6 5 4 3 3 4 4 3 2 3 2 4 4 4 3
2 3 4 4 4 5 5 6 6 6 6 6 6 6 6 7 6 6 6 6 5 5 4 4 4 4 4 6 7 5 3 3 3 3 3 4 5 4 3 4 3 2 3
3 3 4 4 4 5 6 5 5 5 5 6 6 6 6 5 5 6 6 5 6 6 5 5 4 4 4 4 6 6 5 4 3 3 2 3 6 4 5 4 2 3 5
2 3 4 3 3 4 4 5 5 5 5 6 6 5 6 5 5 5 6 5 5 5 5 5 5 4 4 5 7 8 7 5 4 1 2 3 6 6 6 6 5 6 6
2 3 3 3 3 3 3 4 5 6 6 6 5 5 5 5 5 4 4 4 4 4 4 4 4 4 4 4 5 5 6 6 5 3 3 6 6 6 3 5 6 6 4
2 2 3 3 3 3 3 3 4 5 6 6 5 5 5 5 4 4 2 4 3 2 3 3 3 3 4 2 2 3 3 3 3 3 4 4 4 5 5 5 4 4 4
2 2 3 3 3 3 3 3 4 5 5 5 5 4 4 4 4 4 3 2 0 3 1 1 2 1 1 4 4 4 3 2 3 4 5 5 5 5 5 5 5 5 5
Wind_Direction
188 187 189 188 186 184 184 184 185 175 179 175 182 164 154 152 135 125 94 102 119 126 189 114 133 190 144 146 160 158 157 157 142 146 126 109 92 83 87 75 80 84 75
187 188 191 190 189 187 186 185 186 183 186 175 175 160 138 162 141 113 107 117 125 174 168 149 188 145 152 165 172 182 198 179 185 206 179 161 139 109 78 89 92 82 84
194 190 193 195 191 189 190 189 186 181 186 178 181 166 171 192 160 149 137 120 110 138 59 152 218 175 208 158 189 201 209 211 213 250 274 238 128 123 109 77 77 80 75
197 194 192 193 195 192 188 187 183 183 181 186 192 191 200 181 133 146 122 131 123 108 126 152 159 253 248 157 223 189 236 231 225 197 265 331 58 183 147 144 120 102 85
197 196 195 192 194 191 185 181 181 183 184 189 189 201 209 184 155 153 136 163 130 122 88 87 85 265 262 195 269 232 257 247 257 233 176 160 179 222 204 152 148 128 103
193 195 194 189 190 188 184 179 179 183 186 190 191 200 198 196 176 178 164 179 162 165 144 161 330 273 315 209 237 248 236 267 282 279 245 225 236 220 196 173 170 138 112
193 190 190 189 188 189 187 183 180 184 186 190 191 193 193 195 194 196 183 197 174 163 147 148 86 335 21 271 261 238 278 262 254 257 261 262 268 265 260 195 158 146 139
190 190 189 189 189 189 186 186 183 185 186 188 186 187 191 199 192 190 202 187 172 141 136 156 165 192 268 276 259 261 232 229 249 257 281 271 263 247 224 202 189 184 163
186 186 186 188 188 187 186 187 184 185 186 184 181 185 189 199 185 177 196 183 172 168 164 181 181 190 253 303 268 283 285 211 223 216 213 245 207 215 233 215 218 231 203
180 182 183 185 183 183 183 184 183 184 183 182 185 179 181 183 183 192 178 162 156 150 172 181 178 191 209 234 264 229 141 237 221 247 246 240 203 192 208 212 222 240 238
174 174 177 180 178 177 177 179 181 182 182 182 181 181 179 179 182 184 183 176 171 166 180 197 198 200 208 239 243 269 212 225 211 216 193 211 226 216 201 205 215 214 209
167 168 171 173 176 178 179 180 181 182 181 178 177 180 181 181 184 181 181 174 174 181 183 194 200 207 183 214 231 239 220 214 202 196 190 196 177 190 235 220 207 192 190
162 163 167 173 178 181 181 181 183 182 181 175 177 174 179 178 181 178 178 178 178 183 188 192 197 196 184 194 208 216 216 209 198 191 187 185 176 193 180 220 199 192 177
161 164 166 168 173 178 179 180 184 181 179 175 176 174 178 177 176 181 183 185 186 186 188 189 191 189 187 190 202 197 197 202 190 177 168 164 175 162 185 199 198 187 173
168 171 174 169 170 174 179 180 181 178 177 178 180 177 177 178 178 182 185 186 191 193 185 184 186 188 184 187 198 199 179 189 179 154 147 116 77 50 14 336 166 176 194
178 176 175 174 178 177 178 176 178 176 176 180 183 177 176 178 181 184 182 182 188 189 183 185 185 189 173 91 74 313 139 159 157 144 144 143 138 116 94 50 47 30 211
183 179 176 176 177 178 179 179 176 174 176 179 180 181 180 181 182 182 179 181 183 182 184 184 184 181 132 126 136 174 192 163 152 159 184 187 126 160 154 144 162 155 18
180 173 173 173 174 171 172 171 168 171 174 174 176 182 184 183 181 180 181 181 180 181 182 183 182 177 151 148 164 196 201 182 172 174 180 182 157 149 172 175 174 183 178
173 170 166 163 159 163 164 162 166 170 174 177 176 182 185 185 182 182 181 181 181 182 186 183 185 184 162 159 174 212 193 181 185 184 181 194 170 112 263 202 187 190 180
149 151 143 140 149 154 158 163 167 170 177 179 179 179 183 185 185 181 180 176 180 184 188 180 185 185 176 161 176 217 215 187 195 183 179 152 150 142 209 216 201 201 202
135 141 140 139 143 147 152 165 167 171 171 169 170 173 178 182 180 175 175 174 178 180 188 177 180 181 175 165 174 205 238 211 211 200 193 150 143 168 211 243 226 213 234
142 145 139 135 144 153 159 166 171 166 163 164 164 164 169 175 168 169 171 175 178 180 182 181 185 178 173 175 175 191 225 272 232 230 209 132 152 186 215 229 213 203 236
149 147 144 141 150 158 164 168 165 159 159 162 162 162 165 164 160 164 169 177 185 193 187 187 190 188 178 167 174 189 206 226 239 239 78 123 173 197 206 207 213 214 225
163 155 154 157 156 159 165 166 164 163 164 164 162 162 162 164 164 172 176 185 187 196 197 198 199 193 188 185 174 186 191 199 213 224 171 180 195 221 224 199 208 222 229
164 164 169 167 164 160 163 160 162 167 169 167 166 171 172 166 162 173 184 205 196 202 214 211 207 209 208 179 167 212 205 208 199 203 207 204 198 209 216 218 217 220 216
164 166 175 170 162 161 162 158 169 176 174 173 176 182 183 172 176 170 175 94 51 108 123 334 282 211 122 136 161 193 209 188 164 205 221 218 219 222 222 225 222 218 220